| time (UTC) | temp F | wind direction | speed knots | gust knots | rain 1hr in | rain 24hr in | rain mn in | humidity % | barometer mb |
| 20260507154527 | 54 | 300 | 6.1 | 9.6 | 0.00 | 0.24 | 0.18 | 66 | 997.5 |
| 20260507153022 | 53 | 305 | 2.6 | 7.0 | 0.00 | 0.24 | 0.18 | 69 | 997.7 |
| 20260507151522 | 53 | 319 | 3.5 | 7.8 | 0.00 | 0.24 | 0.18 | 70 | 997.7 |
| 20260507150023 | 51 | 298 | 3.5 | 7.0 | 0.00 | 0.24 | 0.18 | 75 | 997.7 |
| 20260507144522 | 49 | 313 | 4.3 | 7.8 | 0.00 | 0.24 | 0.18 | 78 | 997.9 |
| 20260507143012 | 49 | 290 | 2.6 | 8.7 | 0.00 | 0.24 | 0.18 | 77 | 997.8 |
| 20260507141507 | 48 | 304 | 5.2 | 11.3 | 0.00 | 0.24 | 0.18 | 80 | 997.8 |
| 20260507140004 | 46 | 302 | 4.3 | 7.8 | 0.00 | 0.24 | 0.18 | 83 | 997.9 |
| 20260507134501 | 46 | 271 | 4.3 | 9.6 | 0.00 | 0.24 | 0.18 | 83 | 998.1 |
| 20260507133132 | 45 | 346 | 6.1 | 9.6 | 0.00 | 0.24 | 0.18 | 85 | 998.2 |
| 20260507131556 | 45 | 327 | 6.1 | 9.6 | 0.00 | 0.24 | 0.18 | 85 | 998.3 |
| 20260507130106 | 45 | 299 | 5.2 | 8.7 | 0.00 | 0.24 | 0.18 | 88 | 998.6 |
| 20260507124548 | 44 | 12 | 1.7 | 6.1 | 0.00 | 0.24 | 0.18 | 91 | 998.6 |
| 20260507123045 | 43 | 35 | 3.5 | 7.0 | 0.00 | 0.24 | 0.18 | 91 | 999.0 |
| 20260507121547 | 43 | 350 | 3.5 | 7.8 | 0.00 | 0.24 | 0.18 | 92 | 998.9 |
| 20260507120052 | 42 | 343 | 4.3 | 8.7 | 0.00 | 0.24 | 0.18 | 93 | 999.3 |
| 20260507114603 | 42 | 5 | 2.6 | 7.0 | 0.01 | 0.24 | 0.18 | 94 | 999.4 |
| 20260507113035 | 41 | 15 | 3.5 | 7.8 | 0.01 | 0.24 | 0.18 | 95 | 999.4 |
| 20260507111535 | 41 | 331 | 4.3 | 7.0 | 0.02 | 0.24 | 0.18 | 95 | 999.7 |
| 20260507110031 | 41 | 319 | 1.7 | 4.3 | 0.02 | 0.24 | 0.18 | 95 | 999.8 |
| 20260507104529 | 41 | 348 | 0.0 | 3.5 | 0.02 | 0.24 | 0.17 | 95 | 999.9 |
| 20260507103027 | 41 | 17 | 1.7 | 3.5 | 0.02 | 0.24 | 0.17 | 95 | 1000.0 |
| 20260507101528 | 41 | 360 | 1.7 | 4.3 | 0.03 | 0.23 | 0.17 | 95 | 1000.1 |
| 20260507100024 | 41 | 339 | 3.5 | 5.2 | 0.05 | 0.23 | 0.17 | 95 | 1000.3 |
| 20260507094521 | 41 | 5 | 1.7 | 4.3 | 0.06 | 0.22 | 0.16 | 95 | 1000.4 |
| 20260507093022 | 41 | 360 | 0.9 | 3.5 | 0.06 | 0.21 | 0.15 | 95 | 1000.7 |
| 20260507091526 | 41 | 360 | 1.7 | 3.5 | 0.06 | 0.20 | 0.13 | 95 | 1000.9 |
| 20260507090023 | 41 | 327 | 0.9 | 3.5 | 0.05 | 0.18 | 0.12 | 95 | 1001.1 |
| 20260507084516 | 41 | 18 | 0.9 | 2.6 | 0.04 | 0.17 | 0.10 | 95 | 1001.0 |
| 20260507083015 | 41 | 50 | 0.9 | 3.5 | 0.03 | 0.15 | 0.09 | 95 | 1001.1 |
| 20260507081513 | 41 | 59 | 1.7 | 3.5 | 0.02 | 0.14 | 0.08 | 95 | 1001.4 |
| 20260507080011 | 41 | 36 | 1.7 | 3.5 | 0.02 | 0.13 | 0.07 | 95 | 1001.6 |
| 20260507074509 | 41 | 22 | 1.7 | 3.5 | 0.02 | 0.13 | 0.06 | 95 | 1002.1 |
| 20260507073006 | 41 | 355 | 0.9 | 3.5 | 0.02 | 0.12 | 0.06 | 95 | 1002.4 |
| 20260507071505 | 41 | 30 | 0.9 | 3.5 | 0.03 | 0.12 | 0.06 | 95 | 1002.6 |
| 20260507070008 | 41 | 59 | 2.6 | 4.3 | 0.02 | 0.11 | 0.05 | 95 | 1002.6 |
| 20260507064502 | 41 | 36 | 1.7 | 5.2 | 0.02 | 0.10 | 0.04 | 95 | 1002.8 |
| 20260507063106 | 41 | 45 | 0.9 | 3.5 | 0.02 | 0.09 | 0.03 | 95 | 1003.0 |
| 20260507061557 | 41 | 26 | 1.7 | 3.5 | 0.02 | 0.09 | 0.02 | 95 | 1003.4 |
| 20260507060056 | 41 | 65 | 1.7 | 2.6 | 0.02 | 0.09 | 0.02 | 95 | 1003.5 |
| 20260507054554 | 41 | 23 | 0.9 | 2.6 | 0.02 | 0.08 | 0.02 | 95 | 1003.5 |
| 20260507053052 | 41 | 111 | 0.9 | 2.6 | 0.02 | 0.08 | 0.02 | 95 | 1003.9 |
| 20260507051552 | 41 | 111 | 1.7 | 3.5 | 0.01 | 0.07 | 0.01 | 95 | 1003.9 |
| 20260507050050 | 41 | 101 | 1.7 | 4.3 | 0.00 | 0.06 | 0.00 | 95 | 1003.9 |
| 20260507044549 | 41 | 101 | 0.9 | 4.3 | 0.00 | 0.06 | 0.00 | 94 | 1004.2 |
| 20260507043047 | 41 | 101 | 1.7 | 4.3 | 0.00 | 0.06 | 0.00 | 94 | 1004.4 |
| 20260507041544 | 41 | 101 | 1.7 | 4.3 | 0.00 | 0.06 | 0.00 | 94 | 1004.7 |
| 20260507040043 | 41 | 79 | 0.9 | 6.1 | 0.00 | 0.06 | 0.00 | 94 | 1005.1 |
| 20260507034540 | 41 | 96 | 2.6 | 6.1 | 0.00 | 0.06 | 0.06 | 94 | 1005.2 |
| 20260507033039 | 41 | 88 | 4.3 | 7.0 | 0.00 | 0.06 | 0.06 | 94 | 1005.2 |
| 20260507031540 | 41 | 99 | 3.5 | 7.0 | 0.01 | 0.06 | 0.06 | 94 | 1005.4 |
| 20260507030038 | 41 | 115 | 2.6 | 7.0 | 0.01 | 0.06 | 0.06 | 94 | 1005.4 |
| 20260507024538 | 41 | 119 | 2.6 | 4.3 | 0.01 | 0.06 | 0.06 | 94 | 1005.6 |
| 20260507023045 | 41 | 89 | 0.9 | 7.0 | 0.02 | 0.06 | 0.06 | 94 | 1005.8 |
| 20260507021543 | 41 | 105 | 3.5 | 6.1 | 0.02 | 0.06 | 0.06 | 94 | 1005.9 |
| 20260507020057 | 41 | 98 | 2.6 | 6.1 | 0.03 | 0.06 | 0.06 | 94 | 1006.1 |
| 20260507014536 | 41 | 78 | 4.3 | 6.1 | 0.04 | 0.06 | 0.06 | 94 | 1006.4 |
| 20260507013047 | 41 | 94 | 1.7 | 5.2 | 0.04 | 0.05 | 0.05 | 94 | 1006.4 |
| 20260507011536 | 41 | 119 | 1.7 | 3.5 | 0.03 | 0.04 | 0.04 | 93 | 1006.8 |
| 20260507010036 | 41 | 102 | 0.9 | 5.2 | 0.02 | 0.02 | 0.02 | 93 | 1006.9 |
| 20260507004538 | 41 | 142 | 1.7 | 6.1 | 0.02 | 0.02 | 0.02 | 93 | 1006.7 |
| 20260507003042 | 41 | 126 | 3.5 | 5.2 | 0.01 | 0.02 | 0.01 | 92 | 1006.6 |
| 20260507001537 | 41 | 101 | 4.3 | 8.7 | 0.01 | 0.02 | 0.01 | 92 | 1006.7 |
| 20260507000035 | 41 | 91 | 3.5 | 7.8 | 0.01 | 0.02 | 0.01 | 91 | 1006.8 |
| 20260506234534 | 41 | 71 | 4.3 | 7.0 | 0.00 | 0.03 | 0.00 | 91 | 1006.8 |
| 20260506233030 | 42 | 90 | 4.3 | 7.8 | 0.00 | 0.03 | 0.00 | 90 | 1006.8 |
| 20260506231529 | 42 | 94 | 1.7 | 5.2 | 0.00 | 0.03 | 0.00 | 89 | 1006.9 |
| 20260506230029 | 42 | 130 | 1.7 | 6.1 | 0.00 | 0.03 | 0.00 | 88 | 1006.7 |
| 20260506224532 | 42 | 122 | 1.7 | 5.2 | 0.00 | 0.03 | 0.00 | 87 | 1006.8 |
| 20260506223040 | 43 | 149 | 2.6 | 6.1 | 0.00 | 0.03 | 0.00 | 86 | 1006.7 |
| 20260506221528 | 43 | 115 | 2.6 | 7.0 | 0.00 | 0.03 | 0.00 | 84 | 1006.9 |
| 20260506220028 | 43 | 135 | 2.6 | 6.1 | 0.00 | 0.03 | 0.00 | 83 | 1006.7 |
| 20260506214537 | 43 | 133 | 3.5 | 9.6 | 0.00 | 0.04 | 0.00 | 81 | 1006.6 |
| 20260506213025 | 43 | 94 | 4.3 | 7.8 | 0.00 | 0.04 | 0.00 | 78 | 1006.7 |
| 20260506211525 | 44 | 119 | 3.5 | 9.6 | 0.00 | 0.04 | 0.00 | 77 | 1006.7 |
| 20260506210027 | 45 | 132 | 4.3 | 8.7 | 0.00 | 0.04 | 0.00 | 75 | 1006.5 |
| 20260506204523 | 45 | 98 | 5.2 | 7.8 | 0.00 | 0.04 | 0.00 | 72 | 1006.5 |
| 20260506203023 | 46 | 179 | 4.3 | 7.8 | 0.00 | 0.04 | 0.00 | 69 | 1006.4 |
| 20260506201523 | 47 | 209 | 4.3 | 9.6 | 0.00 | 0.04 | 0.00 | 67 | 1006.4 |
| 20260506200022 | 48 | 212 | 4.3 | 8.7 | 0.00 | 0.04 | 0.00 | 61 | 1006.6 |
| 20260506194521 | 50 | 188 | 6.1 | 10.4 | 0.00 | 0.04 | 0.00 | 54 | 1006.6 |
| 20260506193020 | 51 | 193 | 3.5 | 6.1 | 0.00 | 0.04 | 0.00 | 53 | 1006.7 |
| 20260506191520 | 51 | 252 | 1.7 | 4.3 | 0.00 | 0.04 | 0.00 | 57 | 1006.7 |
| 20260506190020 | 50 | 315 | 2.6 | 4.3 | 0.00 | 0.04 | 0.00 | 61 | 1006.5 |
| 20260506184537 | 50 | 240 | 2.6 | 5.2 | 0.00 | 0.04 | 0.00 | 58 | 1006.8 |
| 20260506183028 | 49 | 243 | 1.7 | 5.2 | 0.00 | 0.04 | 0.00 | 55 | 1007.0 |
| 20260506181524 | 50 | 184 | 2.6 | 6.1 | 0.00 | 0.04 | 0.00 | 56 | 1006.9 |
| 20260506180017 | 50 | 215 | 2.6 | 5.2 | 0.00 | 0.04 | 0.00 | 54 | 1006.9 |
| 20260506174518 | 50 | 207 | 3.5 | 5.2 | 0.00 | 0.04 | 0.00 | 54 | 1007.0 |
| 20260506173015 | 50 | 288 | 2.6 | 6.1 | 0.00 | 0.04 | 0.00 | 58 | 1007.0 |
| 20260506171516 | 50 | 235 | 2.6 | 5.2 | 0.00 | 0.04 | 0.00 | 54 | 1006.9 |
| 20260506170012 | 49 | 258 | 2.6 | 6.1 | 0.00 | 0.04 | 0.00 | 60 | 1007.0 |
| 20260506164510 | 48 | 229 | 3.5 | 7.8 | 0.00 | 0.04 | 0.00 | 66 | 1007.2 |
| 20260506163009 | 48 | 194 | 3.5 | 6.1 | 0.00 | 0.04 | 0.00 | 68 | 1007.2 |
| 20260506161513 | 48 | 218 | 3.5 | 7.0 | 0.00 | 0.04 | 0.00 | 66 | 1007.4 |
| 20260506160009 | 48 | 275 | 2.6 | 5.2 | 0.00 | 0.04 | 0.00 | 69 | 1007.2 |